カタログに戻る

RASSVET-3 7

運用中科学PO
NORAD 68366·PAYLOAD·🇷🇺 Russia

打ち上げ Mar 23, 2026 から Plesetsk Cosmodrome

Loading…

次のパス (今後24時間)

TLE

最新Source: Space-Track

元期: Sep 14, 2026, 21:28 UTC

1 68366U 26061G   26257.89454172  .00003792  00000-0  18299-3 0  9999
2 68366  82.2907 282.5664 0001629 157.3531 202.7774 15.18406328 27067

AllMySatでRASSVET-3 7をリアルタイム追跡

Download on the App Store